Epoch = 1994 Sept. 5.0 TT T = 1994 Sept.12.1603 TT Peri. = 30.0222 e = 0.260528 Node = 100.6625 2000.0 q = 4.249738 AU Incl. = 16.4655 a = 5.746990 AU n = 0.0715391 P = 13.78 years
m1 = -14 + 5 logΔ + 45 log r(t + 600)